Weather in Verkhniy Yashkul

Russia / Republic of Kalmykia     46°29′38″N   44°09′19″E
temp.,
°C
wind,
m/s
gust,
m/s
humid.,
%
clouds,
%
prec.,
mm/h
press.,
hPa
HPBL,
m
20 april, tue
tue2000:00+12sw379797 0.0 1014165
03:00+11ssw229766 0.0 101328
06:00+12ene2298100 0.8 101228
09:00+15ese91383100 1.6 1010724
12:00+17se91560100 0.5 1009765
15:00+21se10134691 0.6 10071232
18:00+17sse51167100 0.2 1009396
21:00+15s3980100 0.9 1011339
21 april, wed
wed2100:00+14wsw3489100 0.5 1013125
03:00+13w3677100 0.7 1014169
06:00+11w61086100 0.6 1016490
09:00+12wnw5773100 0.7 1017570
12:00+11wnw5784100 0.6 1019412
15:00+12wsw3476100 0.6 1019263
18:00+13sw357893 0.0 1020179
21:00+11wsw358643 0.0 1021105
22 april, thu
thu2200:00+9nw3486100 0.0 102151
03:00+9nnw228474 0.0 102113
06:00+9nnw3383100 0.0 102255
09:00+14nne2264100 0.0 1023615
12:00+17ene1049100 0.1 10231769
15:00+17sse1144100 0.1 10211509
18:00+16s2255100 0.0 102139
21:00+14w346599 0.0 102283
23 april, fri
fri2300:00+14ese1266100 0.1 102237
03:00+13ene2265100 0.1 102134
06:00+12nnw357398 0.0 1022155
09:00+15nw446178 0.0 1022733
12:00+17n224793 0.3 10211631
15:00+17n124558 0.4 10201600
18:00+16ne225596 0.0 102042
21:00+12ese12645 0.0 102011
24 april, sat
sat2400:00+12ssw22674 0.0 101914
03:00+10ssw2272100 0.0 101811
06:00+12sw2272100 0.0 101934
09:00+16sw3460100 0.0 1019631
12:00+19wsw45425 0.0 10181833
15:00+19wsw5745100 0.0 10171244
18:00+16sw48585 0.1 1017279
21:00+13wsw5127095 0.1 1018281